ZHEDA PIXING 3A (45795 NORAD) Tracking and Keplerian Element Data

This shows tracking and keplerian element data for the satellite.

Feedback or suggestion? Click here.




ElementValue
Catalog45795
NameZHEDA PIXING 3A
Epoch Orbit245
Epoch Day185.52564324
Epoch Year2020
RAAN306.6956
Inclination97.3237
Eccentricity0.0013155
Argument of Perigee207.5681
Mean Anonmoly282.9778
Mean Motion15.23868511
Decay Rate4.25E-06
L11 45795U 20039B 20185.52564324 .00000425 00000-0 20495-4 0 9996
L22 45795 97.3237 306.6956 0013155 207.5681 282.9778 15.23868511 2456

Live tracking and technical data element details for ZHEDA PIXING 3A (NORAD 45795). ZHEDA PIXING 3A can be tracked NOW for your location showing map with azimuth and elevation plus other details from your city location.

Track the satellite on the map from your city or location and see movement details for azimuth, elevation, latitude, longitude, range, height, and movement on the map or in text.







IsCatalogInMostPopularTable: catalog: 45795, numindb: 6
Update: records affected: 1



GetName: 45795 ZHEDA PIXING 3A

Hit Count: updated at: Sat, 04 Jul 2020 01:15:18 GMT